[Iaude] MPEC R102: 2023 RZ2 [a=2.31,e=0.57,i=2.2,H=27.1]

mpec at marsden.cfa.harvard.edu mpec at marsden.cfa.harvard.edu
Sun Sep 10 09:16:13 EDT 2023


M.P.E.C. 2023-R102                           Issued 2023 September 10, 13:14 UT

     The Minor Planet Electronic Circulars contain information on unusual
         minor planets, routine data on comets and natural satellites,
         and occasional editorial announcements.  They are published
    on behalf of Division F of the International Astronomical Union by the
          Minor Planet Center, Smithsonian Astrophysical Observatory,
                          Cambridge, MA 02138, U.S.A.
			  
             Prepared using the Tamkin Foundation Computer Network

                              MPC at CFA.HARVARD.EDU
            URL https://www.minorplanetcenter.net/    ISSN 1523-6714

                                    2023 RZ2                                    


Observations:
     K23R02Z*1C2023 09 09.46996102 17 33.418+45 28 35.47         19.50GVER102G96
     K23R02Z 1C2023 09 09.47472302 17 34.429+45 26 36.31         20.44GVER102G96
     K23R02Z 1C2023 09 09.47947002 17 35.596+45 24 32.44         20.05GVER102G96
     K23R02Z 1C2023 09 09.49843702 17 40.150+45 16 25.80               VER102703
     K23R02Z 1C2023 09 09.49985302 17 40.510+45 15 50.10         19.83GVER102703
     K23R02Z 1C2023 09 09.50268202 17 41.360+45 14 38.60         19.43GVER102703
     K23R02Z 1C2023 09 09.50294702 17 41.323+45 14 30.34         19.92GVER102G96
     K23R02Z 1C2023 09 09.50313102 17 41.406+45 14 25.94         19.95GVER102G96
     K23R02Z 1C2023 09 09.50331502 17 41.471+45 14 21.01         19.78GVER102G96
     K23R02Z 1C2023 09 09.50349802 17 41.464+45 14 16.01         19.65GVER102G96
     K23R02Z 5C2023 09 10.04025 02 22 02.20 +42 04 39.7          20.4 GXER102033
     K23R02Z 5C2023 09 10.04309 02 22 02.65 +42 03 51.3          20.2 GXER102033
     K23R02Z 5C2023 09 10.04593 02 22 03.09 +42 03 02.5          19.9 GXER102033
     K23R02Z IC2023 09 10.09474502 22 09.13 +41 49 58.8          20.5 GVER102L01
     K23R02Z IC2023 09 10.09623402 22 09.26 +41 49 33.5          20.2 GVER102L01
     K23R02Z NC2023 09 10.09772202 22 09.48 +41 49 07.7          20.4 GVER102L01
     K23R02Z 1C2023 09 10.14726 02 22 17.59 +41 34 10.5          20.2 VXER102033
     K23R02Z 1C2023 09 10.14789 02 22 17.70 +41 33 59.6          20.4 VXER102033
     K23R02Z 1C2023 09 10.14853 02 22 17.79 +41 33 48.5          20.5 VXER102033

Observer details:
033 Karl Schwarzschild Observatory, Tautenburg.  Observers C. Demeautis, B.
    Stecklum, S. Melnikov, F. Ludwig, C. Hoegner, M. Hartmann.  Measurers C.
    Demeautis, B. Stecklum.  1.34-m f/3 Schmidt + CCD.
703 Catalina Sky Survey.  Observer J. K. Hogan.  Measurers E. J. Christensen,
    D. Fay, J. B. Fazekas, D. C. Fuls, A. R. Gibbs, A. D. Grauer, H. Groeller,
    J. K. Hogan, R. A. Kowalski, S. M. Larson, G. J. Leonard, D. Rankin, R. L.
    Seaman, A. Serrano, F. C. Shelly, K. W. Wierzchos.  0.68-m Schmidt + 10K
    CCD.
G96 Mt. Lemmon Survey.  Observer D. C. Fuls.  Measurers E. J. Christensen, D.
    Fay, J. B. Fazekas, D. C. Fuls, A. R. Gibbs, A. D. Grauer, H. Groeller, J.
    K. Hogan, R. A. Kowalski, S. M. Larson, G. J. Leonard, D. Rankin, R. L.
    Seaman, A. Serrano, F. C. Shelly, K. W. Wierzchos.  1.5-m reflector + 10K
    CCD.
L01 Visnjan Observatory, Tican.  Observer K. Korlevic.  1.0-m f/2.9 reflector
    + CCD.

Orbital elements:
2023 RZ2                                                 Earth MOID = 0.0047 AU
Epoch 2023 Sept. 13.0 TT = JDT 2460200.5                Veres                   
M   5.20721              (2000.0)            P               Q                  
n   0.28071312     Peri.  351.57504     +0.85112733     +0.52473991             
a   2.3100830      Node   336.75479     -0.47937207     +0.76510814             
e   0.5696874      Incl.    2.20364     -0.21397357     +0.37317229             
P   3.51           H   27.10          G   0.15           U   9                  
Residuals in seconds of arc
230909 G96  0.8+  1.5-    230909 G96  0.1-  0.0     230910 L01  0.3-  0.1+
230909 G96  0.5-  1.7+    230909 G96  0.1+  0.2-    230910 L01  0.2+  0.1-
230909 G96  0.2-  0.2-    230909 G96  0.4-  0.5-    230910 033  0.0   1.1+
230909 703  0.4-  0.5-    230910 033  0.1-  0.5-    230910 033  0.3+  0.9+
230909 703  0.3-  0.1+    230910 033  0.1-  0.2-    230910 033  0.2+  0.7+
230909 703  1.2+  1.0+    230910 033  0.1-  0.3-
230909 G96  0.5-  0.3-    230910 L01  0.2+  0.1-

Ephemeris:
2023 RZ2                 a,e,i = 2.31, 0.57, 2                   q = 0.9941
Date    TT    R. A. (2000) Decl.     Delta      r    Elong.  Phase     V
2023 08 11    14 32 11.4 -23 58 14   0.1287  1.0119    85.6    87.1    25.7
...
2023 08 26    14 38 46.4 -21 43 58   0.05844 0.9942    72.0   104.8    24.8
...
2023 09 03    14 47 09.0 -12 36 15   0.01960 1.0003    63.3   115.7    23.1
...
2023 09 09    02 12 12.7 +49 19 08   0.01155 1.0119   112.0    67.4    19.8
2023 09 10    02 21 37.1 +42 18 28   0.01617 1.0143   115.8    63.4    20.4
2023 09 11    02 25 51.5 +38 24 53   0.02091 1.0170   118.2    60.8    20.9
...
2023 09 17    02 31 44.2 +30 40 44   0.05004 1.0360   126.6    51.2    22.6
...
2023 09 25    02 30 18.1 +27 51 30   0.08947 1.0690   135.8    40.9    23.6
...
2023 10 10    02 21 23.1 +25 02 07   0.1674  1.1504   152.9    23.3    24.6

M. P. C. Staff               (C) Copyright 2023 MPC           M.P.E.C. 2023-R102





More information about the Iaude mailing list